Location: Normandy Village
(37.8755°N, 122.2655°W)
Time: 00:01:07
(UTC+00:00)

Cosmos 2242 Rocket - Pass Details

Date: 22 September 2019
Orbit: 617 x 652 km, 82.5° (Epoch: 14 October)

Event Time Altitude Azimuth Distance (km) Brightness Sun altitude
Exits shadow 12:12:59 55° 262° (W) 775 3.6 -21.0°
Maximum altitude 12:13:16 56° 279° (W) 764 3.6 -20.9°
Drops below altitude 10° 12:17:42 10° 358° (N) 2,029 6.4 -20.1°
Sets 12:19:59 0° 3° (N) 2,935 7.3 -19.6°
